Location: Courçay
(47.2523°N, 0.8761°E)
Time: 21:40:49
(UTC+00:00)

Cosmos 2344 - Pass Details

Date: 18 November 2025
Orbit: 1197 x 3044 km, 63.3° (Epoch: 05 December)

Event Time Altitude Azimuth Distance (km) Brightness Sun altitude
Rises 18:22:00 0° 318° (NW) 4,186 6.8 -20.8°
Reaches altitude 10° 18:24:33 10° 322° (NW) 3,298 6.1 -21.3°
Maximum altitude 18:32:23 68° 46° (NE) 1,616 3.9 -22.6°
Enters shadow 18:38:34 26° 122° (ESE) 2,967 5.0 -23.6°
